User: anonymous   Login
Location: Hartman Creek State Park
(44.3257°N, 89.2134°W)
Time: 16:15:41
(UTC-06:00)
Language:

Cosmos 2263 Rocket - Orbit

View from above orbital plane
View from above orbital plane
View from above satellite
View from above satellite

Ground track
Ground track

The orbit data is extracted from the following two-line orbital elements,

1 22803U 93059B   16336.95702907 +.00000226 +00000-0 +13661-3 0  9999
2 22803 070.9901 305.0397 0018658 319.9801 039.9947 14.16758293200097
Epoch (UTC): 01 December 2016 22:58:07
Eccentricity: 0.0018658
inclination: 70.9901°
perigee height: 823 km
apogee height: 850 km
right ascension of ascending node: 305.0397°
argument of perigee: 319.9801°
revolutions per day: 14.16758293
mean anomaly at epoch: 39.9947°
orbit number at epoch: 20009

The dashed part of the orbit path shows where the satellite is in the earth's shadow,  

DLR